Location: �terpigny
(49.8910°N, 2.9249°E)
Time: 10:28:39
(UTC+00:00)

Cosmos 1758 Rocket - Pass Details

Date: 24 October 2021
Orbit: 602 x 635 km, 82.5° (Epoch: 30 November)

Event Time Altitude Azimuth Distance (km) Brightness Sun altitude
Rises 18:13:11 0° 353° (N) 2,869 7.1 -15.7°
Reaches altitude 10° 18:15:27 10° 358° (N) 1,961 6.2 -16.1°
Maximum altitude 18:19:42 56° 76° (ENE) 727 3.5 -16.8°
Drops below altitude 10° 18:23:57 10° 156° (SSE) 1,956 5.9 -17.4°
Enters shadow 18:24:10 - 156° (SSE) 2,039 6.0 -17.5°
